• In Deutschland
  • Länderverzeichnis
  • Für 7 Tage
  • Wassertemperatur
  • Satellitenkarten
  • Wetterkarte
  • Widgets
  • user-avatar
    Anmelden

    Stündliche Wetter Madingou

    Heute, 25 September, Montag

    Zeit Temperatur Niederschläge Wind Luftdruck Luftfeuchtigkeit
    00:00 +28°C° 0 mm 2 m/S 745 mmHg 73%
    01:00 +27°C° 0 mm 2 m/S 745 mmHg 76%
    02:00 +27°C° 0 mm 2 m/S 745 mmHg 77%
    03:00 +26°C° 0 mm 2 m/S 745 mmHg 79%
    04:00 +26°C° 0 mm 2 m/S 745 mmHg 81%
    05:00 +26°C° 0 mm 2 m/S 745 mmHg 80%
    06:00 +26°C° 0 mm 2 m/S 745 mmHg 80%
    07:00 +26°C° 0 mm 2 m/S 746 mmHg 79%
    08:00 +28°C° 0 mm 2 m/S 746 mmHg 74%
    09:00 +29°C° 0 mm 2 m/S 746 mmHg 68%
    10:00 +30°C° 0 mm 2 m/S 747 mmHg 62%
    11:00 +31°C° 0 mm 2 m/S 746 mmHg 58%
    12:00 +34°C° 0 mm 2 m/S 745 mmHg 53%
    13:00 +35°C° 0 mm 3 m/S 744 mmHg 48%
    14:00 +35°C° 0 mm 3 m/S 744 mmHg 48%
    15:00 +35°C° 0 mm 3 m/S 743 mmHg 48%
    16:00 +35°C° 0 mm 3 m/S 743 mmHg 47%
    17:00 +34°C° 0 mm 3 m/S 743 mmHg 51%
    18:00 +33°C° 0 mm 3 m/S 743 mmHg 55%
    19:00 +31°C° 0 mm 3 m/S 743 mmHg 59%
    20:00 +30°C° 0 mm 3 m/S 744 mmHg 63%
    21:00 +29°C° 0 mm 3 m/S 744 mmHg 67%
    22:00 +28°C° 0 mm 3 m/S 745 mmHg 71%
    23:00 +28°C° 0 mm 2 m/S 745 mmHg 73%

    Morgen, 26 September, Dienstag

    Zeit Temperatur Niederschläge Wind Luftdruck Luftfeuchtigkeit
    00:00 +27°C° 0 mm 2 m/S 745 mmHg 75%
    01:00 +27°C° 0 mm 2 m/S 745 mmHg 78%
    02:00 +26°C° 0 mm 2 m/S 744 mmHg 79%
    03:00 +26°C° 0 mm 2 m/S 744 mmHg 81%
    04:00 +26°C° 0 mm 2 m/S 744 mmHg 82%
    05:00 +26°C° 0 mm 1 m/S 744 mmHg 81%
    06:00 +26°C° 0 mm 1 m/S 745 mmHg 80%
    07:00 +26°C° 0 mm 1 m/S 745 mmHg 79%
    08:00 +28°C° 0 mm 2 m/S 745 mmHg 71%
    09:00 +30°C° 0 mm 2 m/S 746 mmHg 64%
    10:00 +32°C° 0 mm 2 m/S 746 mmHg 56%
    11:00 +34°C° 0 mm 2 m/S 745 mmHg 51%
    12:00 +36°C° 0 mm 2 m/S 744 mmHg 45%
    13:00 +37°C° 0 mm 3 m/S 743 mmHg 40%
    14:00 +37°C° 0 mm 3 m/S 742 mmHg 42%
    15:00 +36°C° 0 mm 3 m/S 742 mmHg 43%
    16:00 +36°C° 0 mm 3 m/S 741 mmHg 45%
    17:00 +35°C° 0,1 mm 3 m/S 742 mmHg 49%
    18:00 +33°C° 0,1 mm 3 m/S 742 mmHg 53%
    19:00 +31°C° 0,1 mm 3 m/S 743 mmHg 58%
    20:00 +30°C° 0 mm 3 m/S 744 mmHg 62%
    21:00 +29°C° 0 mm 3 m/S 744 mmHg 66%
    22:00 +28°C° 0 mm 3 m/S 745 mmHg 70%
    23:00 +28°C° 0 mm 3 m/S 745 mmHg 73%

    übermorgen, 27 September, Mittwoch

    Zeit Temperatur Niederschläge Wind Luftdruck Luftfeuchtigkeit
    00:00 +27°C° 0 mm 3 m/S 744 mmHg 75%
    01:00 +27°C° 0 mm 2 m/S 744 mmHg 77%
    02:00 +26°C° 0 mm 2 m/S 744 mmHg 78%
    03:00 +26°C° 0 mm 2 m/S 744 mmHg 79%
    04:00 +26°C° 0 mm 2 m/S 744 mmHg 80%
    05:00 +26°C° 0 mm 2 m/S 745 mmHg 79%
    06:00 +26°C° 0 mm 2 m/S 745 mmHg 79%
    07:00 +26°C° 0 mm 2 m/S 746 mmHg 78%
    08:00 +27°C° 0,1 mm 2 m/S 746 mmHg 74%
    09:00 +28°C° 0,1 mm 2 m/S 746 mmHg 70%
    10:00 +29°C° 0,1 mm 1 m/S 747 mmHg 66%
    11:00 +30°C° 0 mm 2 m/S 746 mmHg 61%
    12:00 +31°C° 0 mm 2 m/S 745 mmHg 57%
    13:00 +32°C° 0 mm 2 m/S 744 mmHg 52%
    14:00 +34°C° 0 mm 2 m/S 744 mmHg 49%
    15:00 +35°C° 0 mm 2 m/S 743 mmHg 47%
    16:00 +35°C° 0 mm 2 m/S 742 mmHg 44%
    17:00 +34°C° 0 mm 2 m/S 743 mmHg 48%
    18:00 +32°C° 0 mm 2 m/S 743 mmHg 51%
    19:00 +31°C° 0 mm 2 m/S 744 mmHg 55%
    20:00 +30°C° 0 mm 2 m/S 744 mmHg 58%
    21:00 +30°C° 0 mm 2 m/S 745 mmHg 61%
    22:00 +29°C° 0 mm 2 m/S 745 mmHg 64%
    23:00 +29°C° 0 mm 2 m/S 745 mmHg 66%

    28 September, Donnerstag

    Zeit Temperatur Niederschläge Wind Luftdruck Luftfeuchtigkeit
    00:00 +28°C° 0 mm 2 m/S 745 mmHg 69%
    01:00 +27°C° 0 mm 2 m/S 744 mmHg 71%
    02:00 +27°C° 0 mm 2 m/S 744 mmHg 73%
    03:00 +27°C° 0 mm 2 m/S 744 mmHg 75%
    04:00 +26°C° 0 mm 2 m/S 744 mmHg 77%
    05:00 +26°C° 0 mm 2 m/S 745 mmHg 77%
    06:00 +26°C° 0 mm 2 m/S 746 mmHg 77%
    07:00 +26°C° 0 mm 2 m/S 746 mmHg 77%
    08:00 +28°C° 0 mm 2 m/S 747 mmHg 69%
    09:00 +30°C° 0 mm 2 m/S 747 mmHg 61%
    10:00 +32°C° 0 mm 2 m/S 747 mmHg 53%
    11:00 +35°C° 0 mm 2 m/S 746 mmHg 48%
    12:00 +36°C° 0 mm 2 m/S 745 mmHg 43%
    13:00 +37°C° 0 mm 3 m/S 744 mmHg 39%
    14:00 +37°C° 0,1 mm 2 m/S 744 mmHg 39%
    15:00 +37°C° 0,1 mm 2 m/S 744 mmHg 39%
    16:00 +37°C° 0,1 mm 2 m/S 743 mmHg 39%
    17:00 +36°C° 0,1 mm 3 m/S 743 mmHg 44%
    18:00 +35°C° 0,1 mm 3 m/S 744 mmHg 48%
    19:00 +33°C° 0,1 mm 3 m/S 744 mmHg 52%
    20:00 +31°C° 0 mm 3 m/S 745 mmHg 57%
    21:00 +30°C° 0 mm 3 m/S 745 mmHg 62%
    22:00 +29°C° 0 mm 3 m/S 745 mmHg 67%
    23:00 +28°C° 0,2 mm 3 m/S 745 mmHg 70%

    29 September, Freitag

    Zeit Temperatur Niederschläge Wind Luftdruck Luftfeuchtigkeit
    00:00 +28°C° 0,2 mm 2 m/S 745 mmHg 72%
    01:00 +27°C° 0,2 mm 2 m/S 745 mmHg 75%
    02:00 +27°C° 0,1 mm 2 m/S 745 mmHg 77%
    03:00 +26°C° 0,1 mm 2 m/S 745 mmHg 78%
    04:00 +26°C° 0,1 mm 1 m/S 745 mmHg 79%
    05:00 +26°C° 0,1 mm 1 m/S 745 mmHg 79%
    06:00 +26°C° 0,1 mm 1 m/S 746 mmHg 78%
    07:00 +26°C° 0,1 mm 1 m/S 747 mmHg 77%
    08:00 +28°C° 0 mm 1 m/S 747 mmHg 71%
    09:00 +29°C° 0 mm 1 m/S 747 mmHg 65%
    10:00 +30°C° 0 mm 1 m/S 747 mmHg 59%
    11:00 +32°C° 0 mm 1 m/S 746 mmHg 54%
    12:00 +33°C° 0 mm 1 m/S 745 mmHg 49%
    13:00 +35°C° 0 mm 1 m/S 744 mmHg 44%
    14:00 +34°C° 0 mm 1 m/S 744 mmHg 45%
    15:00 +35°C° 0 mm 2 m/S 743 mmHg 45%
    16:00 +35°C° 0 mm 2 m/S 743 mmHg 46%
    17:00 +34°C° 0 mm 2 m/S 743 mmHg 49%
    18:00 +32°C° 0 mm 2 m/S 743 mmHg 52%
    19:00 +31°C° 0 mm 2 m/S 744 mmHg 54%
    20:00 +30°C° 0 mm 2 m/S 744 mmHg 58%
    21:00 +30°C° 0 mm 3 m/S 744 mmHg 62%
    22:00 +29°C° 0 mm 3 m/S 744 mmHg 65%
    23:00 +28°C° 0 mm 2 m/S 744 mmHg 69%

    30 September, Samstag

    Zeit Temperatur Niederschläge Wind Luftdruck Luftfeuchtigkeit
    00:00 +28°C° 0 mm 2 m/S 744 mmHg 72%
    01:00 +27°C° 0 mm 2 m/S 744 mmHg 76%
    02:00 +27°C° 0 mm 2 m/S 744 mmHg 78%
    03:00 +26°C° 0 mm 2 m/S 744 mmHg 79%
    04:00 +26°C° 0 mm 1 m/S 744 mmHg 81%
    05:00 +26°C° 0 mm 1 m/S 744 mmHg 80%
    06:00 +26°C° 0 mm 1 m/S 745 mmHg 80%
    07:00 +26°C° 0 mm 1 m/S 746 mmHg 79%
    08:00 +28°C° 0 mm 2 m/S 746 mmHg 73%
    09:00 +29°C° 0 mm 2 m/S 746 mmHg 66%
    10:00 +30°C° 0 mm 2 m/S 746 mmHg 60%
    11:00 +32°C° 0 mm 2 m/S 745 mmHg 56%
    12:00 +34°C° 0 mm 2 m/S 744 mmHg 52%
    13:00 +35°C° 0 mm 3 m/S 743 mmHg 47%
    14:00 +35°C° 0 mm 3 m/S 742 mmHg 47%
    15:00 +35°C° 0 mm 2 m/S 742 mmHg 47%
    16:00 +35°C° 0 mm 2 m/S 742 mmHg 47%
    17:00 +34°C° 0 mm 2 m/S 742 mmHg 51%
    18:00 +32°C° 0 mm 2 m/S 743 mmHg 54%
    19:00 +31°C° 0 mm 2 m/S 743 mmHg 57%
    20:00 +30°C° 0 mm 2 m/S 744 mmHg 61%
    21:00 +29°C° 0 mm 2 m/S 744 mmHg 64%
    22:00 +29°C° 0 mm 2 m/S 744 mmHg 68%
    23:00 +28°C° 0 mm 2 m/S 744 mmHg 70%
    Mehr zeigen